星链-2249 (STARLINK-2249 )

导读

STARLINK-2249是美国太空探索技术公司(SpaceX)星链(Starlink)项目卫星,于2021年5月15日发射升空。该卫星运行在近地轨道,轨道倾角约53度,属于星链互联网星座的组成部分,旨在为全球提供高速低延迟卫星互联网服务,当前处于在轨工作状态,是星链大规模低轨星座部署中的一员。

基本信息
目录编号:
48592
目录名称:
STARLINK-2249
国际标识:
2021-041AR
轨道中心:
EARTH
卫星名称:
星链-2249
卫星全名:
星链-2249 (STARLINK-2249 )
卫星状态:
已陨落 最后检测时间 2026-05-25
发射日期:
2021-05-15 UTC
国别 :
美国 (US)
星等 :
--
该卫星已列入 空间交会检测服务 Space Conjunction Data Service (SCDS) ,当前飞行风险评估等级: 无高风险
轨道信息
数据来源 国际轨道数据
星历时间: 2026-05-25T07:12:04+0800
轨道信息已过期109天
半长轴: 6518.798km
偏心率: 0.0008518
轨道倾角: 53.031°
近地点辐角 261.717°
升交点赤经 133.577°
平近点角 98.291°
近地点: 135.108km
远地点: 146.214km
周期: 87.299分钟
每日圈数: 16.494969
详细信息
固有亮度:
5
最大亮度:
2.5
卫星平台:
Starlink V1.0
覆盖范围:
全球
运营商:
太空探索技术公司
运营商所在国:
美国
制造商(研发单位):
太空探索技术公司
制造商所在国:
美国
使用方式:
暂无
卫星简介
星链(Starlink)计划是由太空探索技术公司(SpaceX)提出的一个巨型低轨卫星互联网星座项目,计划在2019年至2024年间在太空搭建由约1.2万颗卫星组成的“星链”网络,其中1584颗将部署在地球上空550千米处的近地轨道,并从2020年开始工作。该卫星仍在工作。
与全量物体交会距离演化趋势
与全量物体交会风险概率演化趋势